Погода в Бут-Казмаляре

Россия / Республика Дагестан     41°42′12″N   48°23′56″E
темп.,
°C
ветер,
м/с
пор.,
м/с
влажн.,
%
обл.,
%
осадки,
мм/ч
давл.,
гПа
погр.,
м
23 апреля, пт
пт2300:00+12с1182100 0.0 101925
03:00+10сз238913 0.0 101944
06:00+12сз297976 0.0 1021751
09:00+13с6973100 0.0 1023949
12:00+12ссз51076100 0.0 1024800
15:00+15ссз356886 0.0 1024895
18:00+14ююз227112 0.0 102469
21:00+11юз227972 0.0 102421
24 апреля, сб
сб2400:00+11ююз33700 0.0 102228
03:00+10ююз33686 0.0 102133
06:00+11ююв2871100 0.0 1019222
09:00+15в456494 0.0 1019627
12:00+16ссв546480 0.0 1018681
15:00+15с566858 0.0 1018642
18:00+12ссз46828 0.0 1019318
21:00+9зсз34885 0.0 102162
25 апреля, вс
вс2500:00+10зсз22764 0.0 102116
03:00+9ююз11770 0.0 102110
06:00+11зюз217195 0.0 102134
09:00+18ссв21439 0.0 1020645
12:00+18св4346100 0.0 1019646
15:00+18ссв3245100 0.0 1018622
18:00+13с226671 0.0 101728
21:00+10юз116838 0.0 101610
26 апреля, пн
пн2600:00+10ююз22745 0.0 101410
03:00+9ю11800 0.0 101110
06:00+10сз48794 0.0 1013275
09:00+15с45665 0.0 1013628
12:00+16ссв43614 0.0 1012614
15:00+17ссв436277 0.0 1010559
18:00+12ссз2580100 0.0 1011196
21:00+11з1185100 0.0 101112
27 апреля, вт
вт2700:00+11зюз3482100 0.0 101365
03:00+12з336910 0.0 101433
06:00+13з116999 0.0 101631
09:00+15с5671100 0.0 1017639
12:00+15с6670100 0.0 1017858
15:00+15с677297 0.0 1018827
18:00+12с5787100 0.0 1019468
21:00+11с3698100 6.4 1020282